This is the latest recevied weather packets stored in our database for station/object IK2ILW-6. If no packets are shown the sender has not sent any weather packets the latest 10 day(s).
| Time | Temp. | Humidity | Pressure | Rain* | Wind** | Luminosity | Snow |
|---|---|---|---|---|---|---|---|
| 1777647387 | 7.22° C | 70% | 1026.6 hPa | 0 mm | - | 596 W/m² | - |
| 1777647094 | 7.78° C | 70% | 1026.6 hPa | 0 mm | - | 610 W/m² | - |
| 1777646798 | 7.78° C | 71% | 1026.6 hPa | 0 mm | - | 621 W/m² | - |
| 1777646483 | 7.78° C | 69% | 1026.6 hPa | 0 mm | - | 635 W/m² | - |
| 1777646188 | 7.78° C | 70% | 1026.6 hPa | 0 mm | - | 650 W/m² | - |
| 1777645893 | 7.22° C | 70% | 1026.6 hPa | 0 mm | - | 663 W/m² | - |
| 1777645593 | 7.22° C | 71% | 1026.7 hPa | 0 mm | - | 675 W/m² | - |
| 1777645298 | 7.22° C | 71% | 1026.8 hPa | 0 mm | - | 686 W/m² | - |
| 1777644983 | 7.22° C | 72% | 1026.8 hPa | 0 mm | - | 693 W/m² | - |
| 1777644693 | 7.22° C | 74% | 1026.8 hPa | 0 mm | - | 701 W/m² | - |
| 1777644399 | 6.67° C | 71% | 1026.9 hPa | 0 mm | - | 714 W/m² | - |
| 1777644085 | 6.67° C | 72% | 1026.9 hPa | 0 mm | - | 728 W/m² | - |
| 1777643790 | 6.67° C | 69% | 1026.9 hPa | 0 mm | - | 738 W/m² | - |
| 1777643491 | 6.67° C | 70% | 1026.8 hPa | 0 mm | - | 754 W/m² | - |
| 1777643196 | 7.22° C | 73% | 1026.9 hPa | 0 mm | - | 761 W/m² | - |
| 1777642900 | 6.67° C | 73% | 1026.9 hPa | 0 mm | - | 772 W/m² | - |
| 1777642585 | 6.11° C | 74% | 1026.9 hPa | 0 mm | - | 782 W/m² | - |
| 1777642290 | 6.67° C | 71% | 1026.9 hPa | 0 mm | - | 791 W/m² | - |
| 1777641996 | 6.67° C | 72% | 1026.9 hPa | 0 mm | - | 800 W/m² | - |
| 1777641685 | 6.67° C | 73% | 1026.9 hPa | 0 mm | - | 807 W/m² | - |
| 1777641390 | 6.67° C | 75% | 1026.9 hPa | 0 mm | - | 816 W/m² | - |
| 1777641093 | 6.67° C | 72% | 1027 hPa | 0 mm | - | 821 W/m² | - |
| 1777640794 | 7.22° C | 75% | 1027 hPa | 0 mm | - | 830 W/m² | - |
| 1777640495 | 6.67° C | 75% | 1027 hPa | 0 mm | - | 835 W/m² | - |
| 1777640194 | 6.11° C | 77% | 1027.1 hPa | 0 mm | - | 846 W/m² | - |
* Rain latest hour (hover to see other rain measurements)
** Current wind speed in m/s (hover to see current wind gust speed)